Regional Weather Roundup
Issued by NWS Cleveland, OH

Home | Current Version | Previous Version | Graphics & Text | Print | Product List | Glossary On
Versions: 1 2 3 4 5 6 7 8 9 10 11 12 13 14 15 16 17 18 19 20 21 22 23 24 25 26 27 28 29 30 31 32 33 34 35 36 37 38 39 40 41 42 43 44 45 46 47 48 49 50
000
ASUS41 KCLE 152202
RWRCLE
OHIO REGIONAL WEATHER ROUNDUP
NATIONAL WEATHER SERVICE CLEVELAND, OH
600 PM EDT TUE APR 15 2014

NOTE: "FAIR" INDICATES FEW OR NO CLOUDS BELOW 12,000 FEET WITH NO
SIGNIFICANT WEATHER AND/OR OBSTRUCTIONS TO VISIBILITY.

OHZ001>008-015>018-024>027-034-035-043-044-152300-
   NORTHWEST OHIO

CITY           SKY/WX    TMP DP  RH WIND       PRES   REMARKS
DEFIANCE       MOSUNNY   35  14  42 NW17G25   30.12R WCI  25
FINDLAY        CLOUDY    33  17  51 NW17G24   30.10R WCI  22
TOLEDO EXPRESS PTSUNNY   34  14  43 NW10G20   30.10R WCI  26
TOLEDO EXEC    CLOUDY    35  16  45 NW22      30.10R WCI  23
LIMA           CLOUDY    33  18  53 NW22G29   30.11R WCI  21
$$

OHZ009>014-019>023-028>033-038-089-152300-
   NORTHEAST OHIO

CITY           SKY/WX    TMP DP  RH WIND       PRES   REMARKS
CLE-HOPKINS    FLURRIES  33  17  51 W15       30.08R WCI  23
CLE-LAKEFRONT  FLURRIES  32  20  61 NW17      30.05R WCI  21
CUY CO. ARPT   CLOUDY    30  23  74 NW16G23   30.05R WCI  19
LORAIN-ELYRIA  LGT SNOW  32  23  69 NW10      30.08R WCI  24
ASHTABULA      CLOUDY    28  21  75 NW8G21    30.03R WCI  20
AKRON-CANTON   LGT SNOW  30  22  72 NW9       30.04R WCI  21
WOOSTER        FLURRIES  29  19  66 NW18G29   30.06R WCI  16
MANSFIELD      CLOUDY    29  18  63 NW13G20   30.06R WCI  19
YOUNGSTOWN     FLURRIES  29  19  66 NW12      30.01R WCI  19
$$

OHZ042-051>053-060>062-070>072-077>081-152300-
  SOUTHWEST OHIO

CITY           SKY/WX    TMP DP  RH WIND       PRES   REMARKS
CINC-COVINGTON PTSUNNY   38  19  46 NW16      30.13R
CINC-LUNKEN    CLOUDY    37  19  48 NW10G17   30.16R
HAMILTON       CLOUDY    40  22  48 NW16      30.16R
DAYTON         PTSUNNY   35  18  49 NW18      30.13R WCI  24
WRIGHT-PAT AFB NOT AVBL
DAYTON GENERAL CLOUDY    35  18  49 NW17G23   30.12R WCI  25
WILMINGTON     CLOUDY    35  19  52 NW15      30.10R WCI  25
$$

OHZ036-037-039>041-045>050-054>059-063>069-073>076-082>088-152300-
  CENTRAL AND SOUTHEAST OHIO

CITY           SKY/WX    TMP DP  RH WIND       PRES   REMARKS
COLUMBUS       CLOUDY    36  18  48 NW15G25   30.09R
OSU AIRPORT    CLOUDY    33  18  53 NW18G26   30.09R WCI  22
BOLTON FIELD   CLOUDY    34  19  55 W13G22    30.10R WCI  25
RICKENBACK AFB NOT AVBL
NEWARK         CLOUDY    34  20  56 NW16      30.08R WCI  24
MARION         CLOUDY    31  18  58 NW16      30.09R WCI  20
LANCASTER      CLOUDY    35  18  49 NW14G22   30.09R WCI  26
ZANESVILLE     CLOUDY    32  19  58 NW18G25   30.07R WCI  20
NEW PHILLY     FLURRIES  30  21  69 NW9       30.07R WCI  22
$$



USA.gov is the U.S. government's official web portal to all federal, state and local government web resources and services.